User: anonymous   Login
Location: South Tamworth Observatory
(43.8246°N, 71.3026°W)
Time: 04:24:19
(UTC-04:00)
Language:

Cosmos 1844 - Orbit

View from above orbital plane
View from above orbital plane
View from above satellite
View from above satellite

Ground track
Ground track

The orbit data is extracted from the following two-line orbital elements,

1 17973U 87041A   14303.06609975 -.00000009  00000-0  20508-4 0  8718
2 17973 070.8960 139.0649 0029368 130.0514 016.6275 14.13941415417285
Epoch (UTC): 30 October 2014 01:35:11
Eccentricity: 0.0029368
inclination: 70.8960°
perigee height: 825 km
apogee height: 867 km
right ascension of ascending node: 139.0649°
argument of perigee: 130.0514°
revolutions per day: 14.13941415
mean anomaly at epoch: 16.6275°
orbit number at epoch: 41728

The dashed part of the orbit path shows where the satellite is in the earth's shadow,  

DLR